Regional Weather Roundup
Issued by NWS Grand Forks, ND

Home | Current Version | Previous Version | Text Only | Print | Product List | Glossary Off
Versions: 1 2 3 4 5 6 7 8 9 10 11 12 13 14 15 16 17 18 19 20 21 22 23 24 25 26 27 28 29 30 31 32 33 34 35 36 37 38 39 40 41 42 43 44 45 46 47 48 49 50

000
ASUS43 KFGF 280631
RWRFGF
PRAIRIE TO PINES  WEATHER ROUNDUP
NATIONAL WEATHER SERVICE EASTERN NORTH DAKOTA/GRAND FORKS ND
100 AM CDT SUN AUG 28 2016

 **SATELLITE DATA USED TO AUGMENT SKY COVER AT AUTOMATED STATIONS**
 *****  WEATHER ACROSS EASTERN NORTH DAKOTA  *****

CITY           SKY/WX    TMP DP  RH WIND       PRES   REMARKS
GRAND FORKS    FAIR      56  54  93 S7        29.97R
6HR MIN TEMP:  56; 6HR MAX TEMP:  68;

GRAND FRKS AFB FAIR      60  57  89 SW9       29.97R
GRAND FRKS NWS   N/A     57 N/A N/A S5          N/A
DEVILS LAKE    FAIR      62  60  93 SE10      29.95S
6HR MIN TEMP:  62; 6HR MAX TEMP:  74;

FARGO          FAIR      64  59  83 SE9       29.99R
WAHPETON ARPT  FAIR      61  55  82 SE7       30.01S
$$

 ***** WEATHER ACROSS CENTRAL AND WESTERN NORTH DAKOTA  *****

CITY           SKY/WX    TMP DP  RH WIND       PRES   REMARKS
BISMARCK       CLEAR     58  52  80 NE7       29.91F
6HR MIN TEMP:  58; 6HR MAX TEMP:  79;

MINOT          FAIR      58  48  69 SE6       29.88S
6HR MIN TEMP:  58; 6HR MAX TEMP:  79;

JAMESTOWN      FAIR      59  57  93 SE6       29.96S
6HR MIN TEMP:  59; 6HR MAX TEMP:  76;

MINOT AFB      FAIR      55  47  76 SE6       29.87S
GARRISON         N/A     60  54  80 SE7       29.89S
WILLISTON      MOCLDY    69  47  45 S7        29.81S
6HR MIN TEMP:  69; 6HR MAX TEMP:  82;

DICKINSON      PTCLDY    60  49  66 S10       29.88R
6HR MIN TEMP:  58; 6HR MAX TEMP:  78;

HETTINGER      CLEAR     65  52  62 SE8       29.92S
6HR MIN TEMP:  61; 6HR MAX TEMP:  80;

$$

 *****  OTHER AIRPORT OBSERVATIONS IN OUR AREA  *****

CITY           SKY/WX    TMP DP  RH WIND       PRES   REMARKS
WALHALLA       FAIR      59  59 100 S5        29.95S
GRAFTON AIRPOR FAIR      54  54 100 SE3       29.98S
VALLEY CITY AR FAIR      59  59 100 S8        30.00R
CANDO          FAIR      57  57 100 SE7       29.96S
CAVALIER APRT  FAIR      57  55  94 CALM      29.96S
GWINNER        FAIR      61  61 100 SE3       29.99R
SHEYENNE NWR     N/A     61  59  94 SE6       29.95S
ROLLA          FAIR      54  48  82 CALM      29.95F
 ***** THE ABOVE OBSERVATIONS ARE NON NWS ARE NOT QUALITY
       CONTROLLED AND MAY MIS-REPORT RAIN FOR SNOW...
$$

  *****  WEATHER ACROSS NORTHERN MINNESOTA  *****

CITY           SKY/WX    TMP DP  RH WIND       PRES   REMARKS
FLAG ISLAND    FAIR      63  59  88 S3        29.99R
WARROAD        FAIR      55  52  88 CALM      30.01S
ROSEAU         FAIR      54  48  82 SE3       30.00S
HALLOCK        FAIR      54  54 100 SE7       29.97S
THF RVR FALLS  FAIR      53  53 100 SE5       30.01R
6HR MIN TEMP:  53; 6HR MAX TEMP:  65;

BAUDETTE       FAIR      53  51  93 SE6       30.01S
6HR MIN TEMP:  53; 6HR MAX TEMP:  61;

WASKISH        CLOUDY    55  55 100 S7        30.03R
CROOKSTON      FAIR      54  54 100 SE7       30.00S
STEPHEN NDAWN    N/A     55  55 100 SE3         N/A
GREENBUSH NDAW   N/A     50  48  93 SE1         N/A
$$
  *****  WEATHER ACROSS CENTRAL AND WEST MINNESOTA  *****

CITY           SKY/WX    TMP DP  RH WIND       PRES   REMARKS
FOSSTON        FAIR      54  54 100 CALM      30.03R
BEMIDJI        FAIR      56  56  97 S3        30.04R
PARK RAPIDS    MOCLDY    58  56  93 SE6       30.05R
6HR MIN TEMP:  58; 6HR MAX TEMP:  69; 6HR PCP: TRACE;

ELBOW LAKE     FAIR      60  58  95 SE7       30.04R
WADENA         FAIR      57  55  94 SE3       30.05R
DETROIT LAKES  FAIR      61  59  94 SE6       30.04R
MOORHEAD       FAIR      61  57  88 S9        30.00S
FERGUS FALLS   FAIR      61  61 100 SE8       30.04R
MORRIS MN      FAIR      59  57  94 CALM      30.03S
STAPLES        CLOUDY    59  57  94 SE5       30.06S FOG
$$
  *****  WEATHER ELSEWHERE ACROSS MINNESOTA  *****

CITY           SKY/WX    TMP DP  RH WIND       PRES   REMARKS
DULUTH         FAIR      57  56  96 SW3       30.08R
6HR MIN TEMP:  57; 6HR MAX TEMP:  61; 6HR PCP:  0.28;

INTRNTL FALLS  FAIR      53  51  93 CALM      30.04R
6HR MIN TEMP:  53; 6HR MAX TEMP:  56; 6HR PCP:  0.10;

ELY            CLOUDY    54  54 100 CALM      30.07R
CLOQUET        CLOUDY    57  55  94 CALM      30.09R
WHEATON        FAIR      63  61  94 SE9       30.03S
BRAINERD       CLOUDY    60  59  96 SE5       30.08R
6HR MIN TEMP:  57; 6HR MAX TEMP:  64;

HIBBING        MOCLDY    48  48 100 CALM      30.08S FOG
6HR MIN TEMP:  46; 6HR MAX TEMP:  54; 6HR PCP:  0.06;

ALEXANDRIA     FOG       58  58 100 SE8       30.07R VSB 1/4
6HR MIN TEMP:  58; 6HR MAX TEMP:  68;

SAINT CLOUD    FOG       60  60 100 CALM      30.07R VSB 1/4
6HR MIN TEMP:  58; 6HR MAX TEMP:  64;

MINNEAPOLIS    FAIR      64  61  90 S7        30.09R
6HR MIN TEMP:  63; 6HR MAX TEMP:  69;

$$

  *****  WEATHER ACROSS SOUTH DAKOTA  *****

CITY           SKY/WX    TMP DP  RH WIND       PRES   REMARKS
SIOUX FALLS    FAIR      69  65  86 SE10      30.05R
6HR MIN TEMP:  68; 6HR MAX TEMP:  76;

BROOKINGS      FAIR      64  62  93 SE12      30.03F
WATERTOWN      MOCLDY    67  62  84 SE12      29.99F
6HR MIN TEMP:  65; 6HR MAX TEMP:  74;

HURON          PTCLDY    70  64  81 SE13      29.96S
6HR MIN TEMP:  69; 6HR MAX TEMP:  80;

SISSETON         N/A     62  60  93 S6        30.00R
ABERDEEN       CLEAR     65  62  90 S10       29.95F
6HR MIN TEMP:  63; 6HR MAX TEMP:  78;

MITCHELL       CLEAR     69  65  86 SE13      29.99S
PIERRE         PTCLDY    69  61  75 SE12      29.89S
6HR MIN TEMP:  68; 6HR MAX TEMP:  81;

MOBRIDGE       CLEAR     68  53  58 SE10      29.90S
RAPID CITY     CLEAR     62  52  69 SE6       29.93S
6HR MIN TEMP:  61; 6HR MAX TEMP:  83;

$$

  *****  SOME WEATHER IN NEARBY STATES *****

CITY           SKY/WX    TMP DP  RH WIND       PRES   REMARKS
GLASGOW MT     MOCLDY    64  41  42 SE9       29.74R
6HR MIN TEMP:  64; 6HR MAX TEMP:  83;

GREAT FALLS MT MOCLDY    64  37  36 SW9       29.81R
6HR MIN TEMP:  61; 6HR MAX TEMP:  79;

CHEYENNE WY    CLEAR     60  39  45 CALM      30.17S
6HR MIN TEMP:  56; 6HR MAX TEMP:  78;

SCOTTSBLUFF NE CLEAR     62  55  77 E8        30.04S
6HR MIN TEMP:  62; 6HR MAX TEMP:  82;

OMAHA NE       PTCLDY    72  66  81 S3        30.06S
6HR MIN TEMP:  71; 6HR MAX TEMP:  82;

DES MOINES IA  FAIR      70  68  93 CALM      30.09R
6HR MIN TEMP:  70; 6HR MAX TEMP:  81;

DAVENPORT IA   FAIR      68  67  96 CALM      30.10S
6HR MIN TEMP:  68; 6HR MAX TEMP:  80;

CHICAGO IL     MOCLDY    75  70  84 NW6       30.10R
6HR MIN TEMP:  74; 6HR MAX TEMP:  80;

EAU CLAIRE WI  FAIR      63  63 100 CALM      30.09R FOG
6HR MIN TEMP:  63; 6HR MAX TEMP:  66; 6HR PCP: TRACE;

LA CROSSE WI   CLOUDY    68  68 100 SE5       30.10R
6HR MIN TEMP:  67; 6HR MAX TEMP:  69;

$$

  *****  SOME NATIONAL WEATHER *****

CITY           SKY/WX    TMP DP  RH WIND       PRES   REMARKS
LA GUARDIA NY  PTCLDY    77  64  64 S5        30.21F
6HR MIN TEMP:  77; 6HR MAX TEMP:  83;

RALEIGH NC     MOCLDY    75  70  84 NE5       30.17R
6HR MIN TEMP:  75; 6HR MAX TEMP:  82;

ATLANTA GA     CLEAR     78  70  76 E5        30.11F
6HR MIN TEMP:  78; 6HR MAX TEMP:  88;

NEW ORLEANS LA PTCLDY    82  76  81 E6        29.97F
6HR MIN TEMP:  81; 6HR MAX TEMP:  83; 6HR PCP:  0.02;

OKLAHOMA CITY  MOCLDY    74  69  85 W3        30.07S
6HR MIN TEMP:  74; 6HR MAX TEMP:  85;

ALBUQUERQUE NM CLOUDY    64  52  64 N3        30.22S
6HR MIN TEMP:  64; 6HR MAX TEMP:  69; 6HR PCP: TRACE;

SALT LAKE CITY CLEAR     72  30  21 E9        30.03R
6HR MIN TEMP:  71; 6HR MAX TEMP:  88;

LOS ANGELES CA PTCLDY    65  60  84 SW9       29.98S
6HR MIN TEMP:  65; 6HR MC1F1C2F2C3F3C4F4C5F5C6F6C7F7C8F8C9F9CaFaCbFbCcFcCd!



USA.gov is the U.S. government's official web portal to all federal, state and local government web resources and services.